| time (UTC) | temp F | wind direction | speed knots | gust knots | rain 1hr in | rain 24hr in | rain mn in | humidity % | barometer mb |
| 20260506193040 | 62 | 150 | 0.9 | 4.3 | 0.00 | 0.00 | 0.00 | 78 | 1019.9 |
| 20260506191542 | 62 | 353 | 1.7 | 4.3 | 0.00 | 0.00 | 0.00 | 76 | 1020.0 |
| 20260506190036 | 61 | 283 | 0.0 | 6.1 | 0.00 | 0.00 | 0.00 | 79 | 1020.1 |
| 20260506184547 | 61 | 301 | 0.0 | 4.3 | 0.00 | 0.00 | 0.00 | 78 | 1020.1 |
| 20260506183050 | 61 | 300 | 0.9 | 3.5 | 0.00 | 0.00 | 0.00 | 79 | 1020.1 |
| 20260506181558 | 61 | 300 | 1.7 | 5.2 | 0.00 | 0.00 | 0.00 | 77 | 1020.2 |
| 20260506180035 | 61 | 341 | 0.0 | 3.5 | 0.00 | 0.00 | 0.00 | 81 | 1020.1 |
| 20260506174530 | 60 | 91 | 0.9 | 3.5 | 0.00 | 0.00 | 0.00 | 81 | 1020.1 |
| 20260506173031 | 60 | 301 | 0.0 | 3.5 | 0.00 | 0.00 | 0.00 | 81 | 1020.1 |
| 20260506171526 | 60 | 267 | 0.0 | 4.3 | 0.00 | 0.00 | 0.00 | 82 | 1020.2 |
| 20260506170026 | 59 | 295 | 0.9 | 3.5 | 0.00 | 0.00 | 0.00 | 83 | 1020.1 |
| 20260506164525 | 59 | 255 | 0.0 | 0.0 | 0.00 | 0.00 | 0.00 | 85 | 1020.0 |
| 20260506163022 | 58 | 306 | 0.0 | 0.0 | 0.00 | 0.00 | 0.00 | 85 | 1020.0 |
| 20260506161518 | 58 | 218 | 0.0 | 0.0 | 0.00 | 0.00 | 0.00 | 86 | 1020.0 |
| 20260506160015 | 58 | 296 | 0.0 | 0.0 | 0.00 | 0.00 | 0.00 | 87 | 1020.0 |
| 20260506154512 | 57 | 293 | 0.0 | 0.0 | 0.00 | 0.00 | 0.00 | 88 | 1020.0 |
| 20260506153019 | 56 | 225 | 0.0 | 0.0 | 0.00 | 0.00 | 0.00 | 88 | 1020.0 |
| 20260506151509 | 56 | 225 | 0.0 | 0.0 | 0.00 | 0.00 | 0.00 | 89 | 1019.9 |
| 20260506150006 | 55 | 222 | 0.0 | 0.0 | 0.00 | 0.00 | 0.00 | 89 | 1019.9 |
| 20260506144513 | 55 | 222 | 0.0 | 0.0 | 0.00 | 0.00 | 0.00 | 89 | 1020.0 |
| 20260506143003 | 54 | 222 | 0.0 | 0.0 | 0.00 | 0.00 | 0.00 | 90 | 1019.8 |
| 20260506141501 | 54 | 222 | 0.0 | 0.0 | 0.00 | 0.00 | 0.00 | 90 | 1019.7 |
| 20260506140107 | 53 | 222 | 0.0 | 0.0 | 0.00 | 0.00 | 0.00 | 91 | 1019.6 |
| 20260506134558 | 53 | 223 | 0.0 | 0.0 | 0.00 | 0.00 | 0.00 | 91 | 1019.4 |
| 20260506133058 | 53 | 222 | 0.0 | 0.0 | 0.00 | 0.00 | 0.00 | 91 | 1019.5 |
| 20260506131557 | 53 | 222 | 0.0 | 0.0 | 0.00 | 0.00 | 0.00 | 91 | 1019.4 |
| 20260506130157 | 53 | 222 | 0.0 | 0.0 | 0.00 | 0.00 | 0.00 | 92 | 1019.3 |
| 20260506124555 | 53 | 222 | 0.0 | 0.0 | 0.00 | 0.00 | 0.00 | 92 | 1019.3 |
| 20260506123054 | 53 | 222 | 0.0 | 0.0 | 0.00 | 0.00 | 0.00 | 92 | 1019.2 |
| 20260506121556 | 53 | 222 | 0.0 | 0.0 | 0.00 | 0.00 | 0.00 | 92 | 1019.1 |
| 20260506120054 | 53 | 222 | 0.0 | 0.0 | 0.00 | 0.00 | 0.00 | 92 | 1019.0 |
| 20260506114555 | 53 | 223 | 0.0 | 0.0 | 0.00 | 0.00 | 0.00 | 92 | 1019.1 |
| 20260506113051 | 53 | 222 | 0.0 | 0.0 | 0.00 | 0.00 | 0.00 | 92 | 1019.0 |
| 20260506111551 | 53 | 222 | 0.0 | 0.0 | 0.00 | 0.00 | 0.00 | 92 | 1018.9 |
| 20260506110049 | 53 | 222 | 0.0 | 0.0 | 0.00 | 0.00 | 0.00 | 92 | 1018.9 |
| 20260506104550 | 53 | 222 | 0.0 | 0.0 | 0.00 | 0.00 | 0.00 | 92 | 1018.7 |
| 20260506103053 | 53 | 222 | 0.0 | 0.0 | 0.00 | 0.00 | 0.00 | 92 | 1018.6 |
| 20260506101545 | 53 | 222 | 0.0 | 0.0 | 0.00 | 0.00 | 0.00 | 92 | 1018.5 |
| 20260506100045 | 53 | 222 | 0.0 | 0.0 | 0.00 | 0.00 | 0.00 | 92 | 1018.4 |
| 20260506094544 | 53 | 223 | 0.0 | 0.0 | 0.00 | 0.00 | 0.00 | 92 | 1018.4 |
| 20260506093043 | 53 | 222 | 0.0 | 0.0 | 0.00 | 0.00 | 0.00 | 91 | 1018.4 |
| 20260506091551 | 53 | 222 | 0.0 | 0.0 | 0.00 | 0.00 | 0.00 | 91 | 1018.4 |
| 20260506090045 | 53 | 222 | 0.0 | 0.0 | 0.00 | 0.00 | 0.00 | 91 | 1018.4 |
| 20260506084547 | 53 | 222 | 0.0 | 0.0 | 0.00 | 0.00 | 0.00 | 91 | 1018.4 |
| 20260506083040 | 53 | 222 | 0.0 | 0.0 | 0.00 | 0.00 | 0.00 | 91 | 1018.4 |
| 20260506081539 | 53 | 223 | 0.0 | 0.0 | 0.00 | 0.00 | 0.00 | 90 | 1018.4 |
| 20260506073034 | 54 | 222 | 0.0 | 0.0 | 0.00 | 0.03 | 0.00 | 90 | 1018.4 |
| 20260506071532 | 54 | 218 | 0.0 | 0.0 | 0.00 | 0.03 | 0.00 | 89 | 1018.2 |
| 20260506061525 | 55 | 310 | 0.9 | 4.3 | 0.00 | 0.06 | 0.03 | 89 | 1017.6 |
| 20260506044522 | 55 | 200 | 0.0 | 0.0 | 0.00 | 0.18 | 0.03 | 88 | 1016.9 |
| 20260506043016 | 55 | 200 | 0.0 | 0.0 | 0.00 | 0.18 | 0.03 | 88 | 1016.8 |
| 20260506041514 | 55 | 200 | 0.0 | 0.0 | 0.00 | 0.18 | 0.03 | 88 | 1016.6 |
| 20260506040021 | 56 | 200 | 0.0 | 0.0 | 0.00 | 0.18 | 0.03 | 87 | 1016.3 |
| 20260506034519 | 56 | 200 | 0.0 | 0.0 | 0.00 | 0.30 | 0.03 | 87 | 1016.3 |
| 20260506033110 | 56 | 199 | 0.0 | 0.0 | 0.00 | 0.30 | 0.03 | 86 | 1016.2 |
| 20260506031509 | 57 | 200 | 0.0 | 0.0 | 0.00 | 0.30 | 0.03 | 85 | 1016.0 |
| 20260506030025 | 57 | 200 | 0.0 | 0.0 | 0.00 | 0.30 | 0.03 | 85 | 1015.7 |
| 20260506024513 | 57 | 129 | 0.0 | 0.0 | 0.00 | 0.42 | 0.03 | 84 | 1015.6 |
| 20260506023011 | 58 | 150 | 0.0 | 0.9 | 0.00 | 0.42 | 0.03 | 83 | 1015.4 |
| 20260506021504 | 58 | 98 | 0.0 | 0.9 | 0.00 | 0.42 | 0.03 | 82 | 1015.3 |
| 20260506020003 | 59 | 110 | 0.0 | 1.7 | 0.00 | 0.42 | 0.03 | 81 | 1015.1 |
| 20260506014503 | 59 | 67 | 0.0 | 0.0 | 0.00 | 0.51 | 0.03 | 81 | 1015.3 |
| 20260506013004 | 59 | 158 | 0.0 | 0.9 | 0.00 | 0.51 | 0.03 | 81 | 1015.3 |
| 20260506011502 | 59 | 173 | 0.0 | 0.0 | 0.00 | 0.51 | 0.03 | 82 | 1015.3 |
| 20260506010002 | 58 | 128 | 0.0 | 0.9 | 0.00 | 0.51 | 0.03 | 82 | 1015.3 |
| 20260506004601 | 59 | 150 | 0.0 | 0.9 | 0.00 | 0.60 | 0.03 | 82 | 1015.1 |
| 20260506003101 | 58 | 61 | 0.0 | 0.0 | 0.00 | 0.60 | 0.03 | 82 | 1015.0 |
| 20260506001600 | 58 | 191 | 0.0 | 0.0 | 0.00 | 0.60 | 0.03 | 83 | 1015.1 |
| 20260505234559 | 58 | 224 | 0.0 | 1.7 | 0.00 | 0.75 | 0.03 | 81 | 1015.0 |
| 20260505233102 | 58 | 214 | 0.0 | 1.7 | 0.00 | 0.75 | 0.03 | 81 | 1014.9 |
| 20260505231558 | 58 | 183 | 0.0 | 1.7 | 0.00 | 0.75 | 0.03 | 81 | 1014.9 |
| 20260505230105 | 58 | 215 | 0.0 | 0.0 | 0.00 | 0.75 | 0.03 | 80 | 1015.0 |
| 20260505224556 | 59 | 215 | 0.0 | 1.7 | 0.00 | 0.81 | 0.03 | 80 | 1014.9 |
| 20260505223108 | 59 | 214 | 0.0 | 3.5 | 0.00 | 0.81 | 0.03 | 79 | 1015.0 |
| 20260505221555 | 60 | 112 | 0.0 | 1.7 | 0.00 | 0.81 | 0.03 | 80 | 1015.1 |
| 20260505220054 | 60 | 153 | 0.0 | 4.3 | 0.00 | 0.81 | 0.03 | 80 | 1015.2 |
| 20260505214554 | 59 | 148 | 0.0 | 2.6 | 0.00 | 0.87 | 0.03 | 81 | 1015.3 |
| 20260505213059 | 59 | 308 | 0.0 | 3.5 | 0.00 | 0.87 | 0.03 | 79 | 1015.3 |
| 20260505211550 | 59 | 252 | 0.0 | 3.5 | 0.00 | 0.87 | 0.03 | 81 | 1015.4 |
| 20260505210049 | 58 | 295 | 0.9 | 5.2 | 0.00 | 0.87 | 0.03 | 83 | 1015.3 |
| 20260505204548 | 58 | 210 | 1.7 | 4.3 | 0.00 | 0.88 | 0.03 | 82 | 1015.3 |
| 20260505203052 | 58 | 218 | 0.0 | 4.3 | 0.00 | 0.88 | 0.03 | 84 | 1015.3 |
| 20260505201544 | 57 | 218 | 0.9 | 4.3 | 0.00 | 0.88 | 0.03 | 85 | 1015.3 |
| 20260505200042 | 56 | 208 | 0.9 | 5.2 | 0.00 | 0.88 | 0.03 | 87 | 1015.4 |
| 20260505194547 | 55 | 210 | 0.9 | 4.3 | 0.00 | 0.92 | 0.03 | 87 | 1015.5 |